Location: Sagn�
(15.2046°N, 12.7898°W)
Time: 13:07:59
(UTC+00:00)

IRS-1A Rocket - Pass Details

Date: 08 May 2021
Orbit: 852 x 931 km, 99.2° (Epoch: 14 June)

Event Time Altitude Azimuth Distance (km) Brightness Sun altitude
Exits shadow 21:25:53 65° 356° (N) 976 4.5 -30.6°
Drops below altitude 10° 21:30:45 10° 348° (NNW) 2,580 7.2 -31.6°
Sets 21:33:10 0° 348° (NNW) 3,532 8.0 -32.1°
